This demonstration page uses our WeatherBlox Daily Observations layout. Learn more.

Left ArrowRight Arrow

39.01783, -85.05884

Hourly Observations for May 29, 2022

Temp ( °F °C ) Dew Point ( °F °C ) Humidity (%) Winds ( mph kmh ) Pressure ( in mb ) Visibility ( mi km ) Precip ( " mm )
12:52 am 00:52 Clear 64 17.8 59 15 84 84 S 5 7 29.95 1014 10 16 0.00 0.00
1:52 am 01:52 Cloudy 61 16.1 57 13.9 87 87 S 3 6 29.95 1014 10 16 0.00 0.00
2:52 am 02:52 Clear 60 15.6 59 15 96 96 S 3 6 29.95 1014 8 13 0.00 0.00
3:52 am 03:52 Clear with Mist and Fog 61 16.1 60 15.6 97 97 S 5 7 29.95 1014 6 10 0.00 0.00
4:52 am 04:52 Clear with Mist and Fog 61 16.1 61 16.1 100 100 S 3 6 29.96 1014 3 5 0.00 0.00
5:52 am 05:52 Clear with Mist and Fog 61 16.1 61 16.1 100 100 Calm 29.96 1015 6 10 0.00 0.00
6:52 am 06:52 Partly Cloudy with Mist and Fog 62 16.7 61 16.1 96 96 SSE 3 6 29.98 1015 5 8 0.00 0.00
7:52 am 07:52 Partly Cloudy with Mist and Fog N/A N/A N/A SSE 6 9 N/A 6 10 0.00 0.00
8:52 am 08:52 Partly Cloudy 67 19.4 63 17.2 87 87 S 7 11 30.00 1016 10 16 0.00 0.00
9:52 am 09:52 Partly Cloudy 70 21.1 62 16.7 76 76 SSW 9 15 30.01 1016 10 16 0.00 0.00
10:52 am 10:52 Partly Cloudy 72 22.2 61 16.1 68 68 S 10 17 29.99 1016 9 14 0.00 0.00
11:52 am 11:52 Partly Cloudy 75 23.9 60 15.6 60 60 S 8 13 29.99 1016 10 16 0.00 0.00
12:52 pm 12:52 Partly Cloudy 75 23.9 61 16.1 62 62 S 8 13 29.99 1016 10 16 0.00 0.00
1:52 pm 13:52 Partly Cloudy 77 25 60 15.6 56 56 S 12 19 29.98 1015 10 16 0.00 0.00
2:52 pm 14:52 Partly Cloudy 79 26.1 60 15.6 52 52 S 12 19 29.95 1014 10 16 0.00 0.00
3:52 pm 15:52 Mostly Cloudy 80 26.7 61 16.1 52 52 S 13 20 29.95 1014 10 16 0.00 0.00
4:52 pm 16:52 Mostly Cloudy 81 27.2 61 16.1 51 51 SSE 14 22 29.94 1014 10 16 0.00 0.00
5:52 pm 17:52 Mostly Cloudy 80 26.7 61 16.1 52 52 SSW 13 20 29.94 1014 10 16 0.00 0.00
6:52 pm 18:52 Mostly Cloudy 80 26.7 61 16.1 52 52 SSE 15 24 29.94 1014 10 16 0.00 0.00
7:52 pm 19:52 Mostly Cloudy 76 24.4 60 15.6 58 58 S 7 11 29.94 1014 10 16 0.00 0.00
8:52 pm 20:52 Mostly Cloudy 74 23.3 61 16.1 64 64 S 6 9 29.95 1014 10 16 0.00 0.00
9:52 pm 21:52 Mostly Cloudy 72 22.2 63 17.2 73 73 SSE 7 11 29.96 1014 10 16 0.00 0.00
10:52 pm 22:52 Mostly Clear 70 21.1 63 17.2 79 79 SSE 7 11 29.97 1015 10 16 0.00 0.00
11:52 pm 23:52 Mostly Clear 70 21.1 63 17.2 79 79 S 6 9 29.97 1015 10 16 0.00 0.00

Powered by AerisWeather